Date String (YYYY-MM-DD hh:mm:ss) UTC,Instrument flags,Ambient pressure (hPa),Sample flow (lpm),Bypass flow (lpm),Sample temperature (°C),Ambient temperature (°C),ASC tube jacket temperature (°C),LED temperature (°C),Box temperature (°C),Sample RH (%),Span deviation,Mass concentration (μg/m³),Mass concentration (μg/m³),Mass concentration (μg/m³)
DateTimeUTC,F1_M11,P_M11,Q1_M11,Q2_M11,T1_M11,T2_M11,T3_M11,T4_M11,T5_M11,U1_M11,ZSPAN_M11,X0_M11,X2_M11,X1_M11
2021-12-15 22:00:00,,0810.5,5.00,0.00,22.4,21.9,00.0,31.3,24.1,06.2,0000.0,0002.88,0000.59,0000.17
2021-12-15 22:01:00,,0810.6,5.00,0.00,22.4,21.8,00.0,31.3,24.0,06.3,0000.0,0002.69,0000.59,0000.17
2021-12-15 22:02:00,,0810.8,5.00,0.00,22.4,21.6,00.0,31.3,24.0,06.1,0000.0,0001.62,0000.59,0000.18
2021-12-15 22:03:00,,0810.8,5.00,0.00,22.3,21.6,00.0,31.3,24.0,06.1,0000.0,0001.39,0000.56,0000.17
2021-12-15 22:04:00,,0810.7,5.00,0.00,22.3,21.5,00.0,31.3,23.9,06.2,0000.0,0001.30,0000.54,0000.16
2021-12-15 22:05:00,,0810.8,5.01,0.00,22.3,21.5,00.0,31.3,23.9,06.3,0000.0,0001.09,0000.50,0000.16
2021-12-15 22:06:00,,0810.9,5.01,0.00,22.3,21.5,00.0,31.3,23.9,06.5,0000.0,0001.07,0000.47,0000.16
2021-12-15 22:07:00,,0810.7,5.00,0.00,22.3,21.5,00.0,31.3,23.9,06.5,0000.0,0001.08,0000.47,0000.16
2021-12-15 22:08:00,,0810.7,4.99,0.00,22.3,21.5,00.0,31.3,24.0,06.8,0000.0,0001.37,0000.52,0000.16
2021-12-15 22:09:00,,0810.3,5.00,0.00,22.3,21.5,00.0,31.3,24.0,06.9,0000.0,0001.62,0000.58,0000.15
2021-12-15 22:10:00,,0810.2,4.99,0.00,22.3,21.5,00.0,31.3,24.0,06.6,0000.0,0003.27,0000.65,0000.16
2021-12-15 22:11:00,,0810.5,5.00,0.00,22.3,21.5,00.0,31.3,23.9,06.4,0000.0,0003.59,0000.63,0000.16
2021-12-15 22:12:00,,0810.7,5.00,0.00,22.2,21.4,00.0,31.3,23.9,06.6,0000.0,0003.79,0000.64,0000.17
2021-12-15 22:13:00,,0811.0,5.00,0.00,22.2,21.4,00.0,31.3,23.9,06.7,0000.0,0004.98,0000.69,0000.17
2021-12-15 22:14:00,,0810.7,5.01,0.00,22.2,21.4,00.0,31.3,23.8,06.6,0000.0,0006.38,0000.76,0000.17
2021-12-15 22:15:00,,0810.6,4.99,0.00,22.2,21.4,00.0,31.3,23.9,06.7,0000.0,0007.27,0000.79,0000.18
2021-12-15 22:16:00,,0810.4,5.00,0.00,22.2,21.3,00.0,31.3,23.9,06.8,0000.0,0008.30,0000.81,0000.18
2021-12-15 22:17:00,,0810.3,5.00,0.00,22.2,21.3,00.0,31.2,23.8,06.4,0000.0,0008.61,0000.82,0000.18
2021-12-15 22:18:00,,0810.2,5.00,0.00,22.2,21.3,00.0,31.2,23.8,06.8,0000.0,0008.91,0000.84,0000.18
2021-12-15 22:19:00,,0810.2,4.99,0.00,22.2,21.3,00.0,31.2,23.8,06.6,0000.0,0009.66,0000.83,0000.19
2021-12-15 22:20:00,,0810.3,5.00,0.00,22.1,21.2,00.0,31.2,23.7,06.5,0000.0,0009.57,0000.80,0000.19
2021-12-15 22:21:00,,0810.2,4.98,0.00,22.1,21.2,00.0,31.2,23.7,06.6,0000.0,0008.84,0000.80,0000.19
2021-12-15 22:22:00,,0810.3,5.00,0.00,22.1,21.2,00.0,31.2,23.7,06.4,0000.0,0008.97,0000.78,0000.19
2021-12-15 22:23:00,,0810.3,5.01,0.00,22.1,21.2,00.0,31.2,23.7,06.5,0000.0,0009.33,0000.77,0000.19
2021-12-15 22:24:00,,0810.3,4.99,0.00,22.1,21.2,00.0,31.2,23.7,06.8,0000.0,0008.98,0000.81,0000.19
2021-12-15 22:25:00,,0810.3,5.00,0.00,22.1,21.2,00.0,31.1,23.7,06.8,0000.0,0008.15,0000.77,0000.19
2021-12-15 22:26:00,,0810.4,5.00,0.00,22.0,21.2,00.0,31.1,23.6,06.8,0000.0,0007.37,0000.79,0000.20
2021-12-15 22:27:00,,0810.4,4.99,0.00,22.0,21.2,00.0,31.1,23.6,07.0,0000.0,0006.34,0000.80,0000.20
2021-12-15 22:28:00,,0810.3,5.01,0.00,22.0,21.2,00.0,31.1,23.6,06.8,0000.0,0005.79,0000.79,0000.21
2021-12-15 22:29:00,,0810.4,5.01,0.00,22.0,21.1,00.0,31.1,23.5,06.9,0000.0,0005.35,0000.79,0000.20
2021-12-15 22:30:00,,0810.6,5.00,0.00,22.0,21.1,00.0,31.1,23.5,06.8,0000.0,0003.82,0000.76,0000.20
2021-12-15 22:31:00,,0810.8,5.00,0.00,22.0,21.2,00.0,31.1,23.6,06.1,0000.0,0005.23,0000.74,0000.20
2021-12-15 22:32:00,,0811.1,5.01,0.00,22.1,21.9,00.0,31.1,23.9,06.2,0000.0,0005.98,0000.73,0000.20
2021-12-15 22:33:00,,0811.2,5.00,0.00,22.2,22.9,00.0,31.1,24.2,06.3,0000.0,0006.63,0000.75,0000.20
2021-12-15 22:34:00,,0811.2,4.99,0.00,22.4,23.1,00.0,31.2,24.3,06.7,0000.0,0006.12,0000.77,0000.20
2021-12-15 22:35:00,,0810.7,5.00,0.00,22.4,22.9,00.0,31.2,24.3,06.1,0000.0,0006.98,0000.77,0000.20
2021-12-15 22:36:00,,0810.8,5.00,0.00,22.3,22.6,00.0,31.2,24.2,05.3,0000.0,0007.04,0000.74,0000.21
2021-12-15 22:37:00,,0811.0,4.99,0.00,22.3,22.3,00.0,31.2,24.0,05.2,0000.0,0006.92,0000.69,0000.20
2021-12-15 22:38:00,,0811.1,5.01,0.00,22.3,22.1,00.0,31.2,24.0,05.5,0000.0,0006.83,0000.67,0000.20
2021-12-15 22:39:00,,0811.3,4.98,0.00,22.3,22.0,00.0,31.2,24.0,06.1,0000.0,0006.96,0000.71,0000.20
2021-12-15 22:40:00,,0811.0,5.01,0.00,22.3,21.9,00.0,31.2,23.9,06.1,0000.0,0006.86,0000.69,0000.20
2021-12-15 22:41:00,,0811.1,5.02,0.00,22.2,21.8,00.0,31.2,23.9,05.8,0000.0,0006.83,0000.66,0000.20
2021-12-15 22:42:00,,0811.3,5.00,0.00,22.2,21.7,00.0,31.2,23.9,06.1,0000.0,0005.90,0000.65,0000.20
2021-12-15 22:43:00,,0811.4,4.99,0.00,22.2,21.6,00.0,31.2,23.9,06.1,0000.0,0005.20,0000.62,0000.21
2021-12-15 22:44:00,,0811.4,4.99,0.00,22.2,21.6,00.0,31.2,23.9,06.4,0000.0,0003.76,0000.59,0000.21
2021-12-15 22:45:00,,0811.4,5.01,0.00,22.2,21.6,00.0,31.2,23.9,06.3,0000.0,0004.21,0000.62,0000.21
2021-12-15 22:46:00,,0811.3,4.99,0.00,22.2,21.6,00.0,31.2,24.0,06.4,0000.0,0003.24,0000.56,0000.21
2021-12-15 22:47:00,,0811.1,4.99,0.00,22.2,21.6,00.0,31.2,23.9,06.3,0000.0,0002.89,0000.55,0000.21
2021-12-15 22:48:00,,0811.3,5.00,0.00,22.2,21.6,00.0,31.2,23.9,06.3,0000.0,0003.94,0000.55,0000.20
2021-12-15 22:49:00,,0811.3,5.01,0.00,22.2,21.6,00.0,31.2,23.9,06.1,0000.0,0004.31,0000.58,0000.20
2021-12-15 22:50:00,,0811.4,5.00,0.00,22.2,21.6,00.0,31.2,23.9,06.0,0000.0,0004.17,0000.58,0000.20
2021-12-15 22:51:00,,0811.6,5.00,0.00,22.2,21.6,00.0,31.2,23.9,05.9,0000.0,0004.04,0000.55,0000.21
2021-12-15 22:52:00,,0811.8,5.01,0.00,22.2,21.5,00.0,31.2,23.8,06.0,0000.0,0004.69,0000.58,0000.20
2021-12-15 22:53:00,,0811.9,5.00,0.00,22.2,21.5,00.0,31.2,23.8,05.9,0000.0,0005.34,0000.61,0000.20
2021-12-15 22:54:00,,0812.0,5.00,0.00,22.2,21.5,00.0,31.2,23.8,05.9,0000.0,0005.62,0000.66,0000.19
2021-12-15 22:55:00,,0812.2,4.99,0.00,22.1,21.4,00.0,31.2,23.7,05.9,0000.0,0005.60,0000.66,0000.19
2021-12-15 22:56:00,,0812.3,5.00,0.00,22.1,21.4,00.0,31.2,23.7,05.8,0000.0,0004.71,0000.59,0000.19
2021-12-15 22:57:00,,0812.3,5.01,0.00,22.1,21.3,00.0,31.2,23.7,05.5,0000.0,0004.69,0000.59,0000.20
2021-12-15 22:58:00,,0812.1,5.01,0.00,22.1,21.3,00.0,31.1,23.7,05.6,0000.0,0004.80,0000.62,0000.20
2021-12-15 22:59:00,,0811.6,4.98,0.00,22.0,21.3,00.0,31.1,23.6,05.8,0000.0,0003.74,0000.64,0000.21
